Green River Lake Weather Center

Moon Phase Calendar



Green River Lake Water Level
Online Cameras

 


      

Current Conditions in Campbellsville
2/21/2024 7:29:36 PM

56°F
Feels Like 53
Clouds
Humidity
47%
Pressure
30.03"
Wind
9.6 mph (S)
Dew Point
36°F
UV Index
0/10 (Low)
Visibility
6 mi

Hourly Forecast

Date & Time Wed, Feb 21
7:00 PM
Wed, Feb 21
8:00 PM
Wed, Feb 21
9:00 PM
Wed, Feb 21
10:00 PM
Wed, Feb 21
11:00 PM
Thu, Feb 22
12:00 AM
Thu, Feb 22
1:00 AM
Thu, Feb 22
2:00 AM
Thu, Feb 22
3:00 AM
Thu, Feb 22
4:00 AM
Thu, Feb 22
5:00 AM
Thu, Feb 22
6:00 AM
Thu, Feb 22
7:00 AM
Thu, Feb 22
8:00 AM
Thu, Feb 22
9:00 AM
Thu, Feb 22
10:00 AM
Thu, Feb 22
11:00 AM
Thu, Feb 22
12:00 PM
Thu, Feb 22
1:00 PM
Thu, Feb 22
2:00 PM
Thu, Feb 22
3:00 PM
Thu, Feb 22
4:00 PM
Thu, Feb 22
5:00 PM
Thu, Feb 22
6:00 PM
Thu, Feb 22
7:00 PM
Thu, Feb 22
8:00 PM
Thu, Feb 22
9:00 PM
Thu, Feb 22
10:00 PM
Thu, Feb 22
11:00 PM
Fri, Feb 23
12:00 AM
Fri, Feb 23
1:00 AM
Fri, Feb 23
2:00 AM
Fri, Feb 23
3:00 AM
Fri, Feb 23
4:00 AM
Fri, Feb 23
5:00 AM
Fri, Feb 23
6:00 AM
Fri, Feb 23
7:00 AM
Fri, Feb 23
8:00 AM
Fri, Feb 23
9:00 AM
Fri, Feb 23
10:00 AM
Fri, Feb 23
11:00 AM
Fri, Feb 23
12:00 PM
Fri, Feb 23
1:00 PM
Fri, Feb 23
2:00 PM
Fri, Feb 23
3:00 PM
Fri, Feb 23
4:00 PM
Fri, Feb 23
5:00 PM
Fri, Feb 23
6:00 PM
Condition
Clouds

Clouds

Clouds

Clouds

Clouds

Clouds

Clouds

Clouds

Clouds

Clouds

Clouds

Clouds

Clouds

Clouds

Clouds

Clouds

Clouds

Clouds

Clouds

Rain

Rain

Rain

Rain

Rain

Rain

Rain

Rain

Rain

Rain

Rain

Rain

Rain

Clouds

Clouds

Clouds

Clouds

Clear

Clear

Clear

Clear

Clear

Clear

Clear

Rain

Clouds

Clouds

Clouds

Clouds
Temperature 56°F55°F54°F54°F53°F53°F53°F54°F54°F54°F54°F54°F53°F54°F55°F56°F57°F57°F57°F54°F54°F55°F54°F54°F54°F54°F54°F54°F53°F53°F52°F50°F48°F46°F44°F42°F42°F46°F49°F52°F54°F56°F57°F57°F56°F54°F50°F47°F
Feels Like 53°F53°F52°F52°F51°F51°F52°F52°F52°F52°F52°F52°F52°F53°F54°F55°F56°F56°F56°F54°F54°F54°F54°F54°F54°F54°F53°F53°F53°F53°F52°F45°F43°F41°F39°F39°F40°F43°F46°F50°F52°F54°F55°F55°F54°F52°F48°F42°F
Cloudiness 100%100%100%99%98%99%100%100%100%100%100%100%100%100%100%100%100%100%100%100%100%100%100%100%100%100%100%100%100%100%100%100%100%99%89%77%4%8%6%6%6%6%1%19%17%15%13%12%
Visibility 6 mi6 mi6 mi6 mi6 mi6 mi6 mi6 mi6 mi6 mi6 mi6 mi6 mi6 mi6 mi6 mi6 mi6 mi6 mi6 mi6 mi6 mi4 mi4 mi6 mi1 mi1 mi0 mi0 mi0 mi5 mi6 mi6 mi6 mi6 mi6 mi6 mi6 mi6 mi6 mi6 mi6 mi6 mi6 mi6 mi6 mi6 mi6 mi
Precipitation 0%0%0%0%0%0%0%0%0%0%0%0%0%0%12%19%19%19%48%97%100%100%100%100%100%100%100%100%100%100%69%73%69%68%56%56%0%0%0%0%0%0%8%58%60%56%44%37%
Humidity 47%53%56%59%63%67%70%70%71%72%74%76%78%78%77%75%74%74%76%88%91%92%95%96%97%98%99%99%99%99%95%92%92%92%94%95%95%85%73%63%59%59%59%56%57%61%64%67%
Dew Point 36°F38°F39°F40°F41°F42°F43°F44°F44°F45°F45°F46°F46°F47°F48°F48°F48°F48°F49°F50°F51°F52°F52°F53°F53°F53°F53°F53°F53°F52°F50°F47°F45°F43°F42°F41°F41°F41°F40°F39°F40°F41°F42°F41°F41°F40°F38°F36°F
Pressure 30.03"30.03"30.03"30"30"29.97"29.97"29.94"29.91"29.88"29.85"29.83"29.83"29.85"29.83"29.8"29.77"29.74"29.71"29.68"29.68"29.65"29.65"29.65"29.65"29.62"29.62"29.62"29.59"29.59"29.62"29.62"29.65"29.68"29.71"29.74"29.74"29.77"29.77"29.74"29.74"29.74"29.71"29.68"29.71"29.71"29.74"29.77"
Wind Speed 9.6 mph11.5 mph13.8 mph15.1 mph15.1 mph15.8 mph16.4 mph17.6 mph18.6 mph18.9 mph19.4 mph20.1 mph18.5 mph18 mph19 mph19.2 mph18.3 mph19.6 mph20.5 mph18.6 mph17.1 mph15.8 mph14.9 mph13.8 mph11.2 mph8 mph6.7 mph5.5 mph6.4 mph7.2 mph12.2 mph12.3 mph11.1 mph10.8 mph8.4 mph5.4 mph4.5 mph5.3 mph5.8 mph6.8 mph8.4 mph10.7 mph13.4 mph15.6 mph15.7 mph14.6 mph13.8 mph10.9 mph
Wind
Direction
173°
S
177°
S
184°
S
188°
S
187°
S
188°
S
192°
SSW
196°
SSW
199°
SSW
196°
SSW
196°
SSW
197°
SSW
203°
SSW
206°
SSW
206°
SSW
206°
SSW
214°
SW
216°
SW
216°
SW
219°
SW
217°
SW
219°
SW
230°
SW
237°
WSW
245°
WSW
268°
W
262°
W
278°
W
276°
W
307°
NW
347°
NNW

N
358°
N
356°
N
358°
N
346°
NNW
333°
NNW
339°
NNW
324°
NW
308°
NW
295°
WNW
286°
WNW
286°
WNW
294°
WNW
298°
WNW
298°
WNW
299°
WNW
297°
WNW

Daily Forecast

Date High Low Precip. Humidity
Today
Feb 21

Clouds
63 °F
38 °F
0%
51%
Thursday
Feb 22

Rain
57 °F
53 °F
100%
74%
Friday
Feb 23

Rain
57 °F
41 °F
100%
59%
Saturday
Feb 24

Rain
43 °F
32 °F
40%
79%
Sunday
Feb 25

Rain
56 °F
30 °F
20%
47%
Monday
Feb 26

Rain
54 °F
50 °F
43%
83%
Tuesday
Feb 27

Rain
62 °F
57 °F
100%
92%
Wednesday
Feb 28

Rain
68 °F
62 °F
100%
79%
Thursday
Feb 29

Rain
65 °F
61 °F
100%
93%
Friday
Mar 1

Rain
60 °F
48 °F
100%
78%
Saturday
Mar 2

Clear
55 °F
36 °F
0%
60%
Sunday
Mar 3

Clear
50 °F
31 °F
0%
56%
Monday
Mar 4

Clear
54 °F
35 °F
0%
58%
Tuesday
Mar 5

Clear
52 °F
36 °F
0%
59%
Wednesday
Mar 6

Clear
54 °F
36 °F
0%
50%
Thursday
Mar 7

Clear
61 °F
35 °F
0%
43%

Temperature 8-14 Day Outlook



Precipitation 8-14 Day Outlook




Quick Links
Green River Lake News
Green River Lake Photos
Green River Lake Videos




About Us
Contact Us
Site Map
Search Site
Advertise With Us
   
GreenRiver.USLakes.info
THE GREEN RIVER LAKE WEBSITE

Copyright 2024, Lakes Online
Privacy    |    Legal